Tracking 29528 objects as of 13-Sep-2024
HD Live streaming from Space Station
objects crossing your sky now

STARLINK-3199

Track STARLINK-3199 now!
10-day predictions
STARLINK-3199 is classified as:


NORAD ID: 49760
Int'l Code: 2021-115AN
Perigee: 546.1 km
Apogee: 547.7 km
Inclination: 53.2 °
Period: 95.4 minutes
Semi major axis: 6917 km
RCS: Unknown
Launch date: December 2, 2021
Source: United States (US)
Launch site: AIR FORCE EASTERN TEST RANGE (AFETR)
Your satellite tracking list
Your tracking list is empty




NASA's NSSDC Master Catalog

Two Line Element Set (TLE):
1 49760U 21115AN  24257.46057606  .00000735  00000-0  64287-4 0  9996
2 49760  53.2176  53.2806 0001173  96.9831 263.1294 15.08841327154932
Source of the keplerian elements: AFSPC